Le nostre stazioni meteo in Italia

Pubblicità
Il mio iltempo24.it
Cluanie Inn No 3, Gran Bretagna (99117): Temperatura & dewpoint: 16.10.2018 08:00:00 - 22.10.2018 08:00:00 (BST)Cluanie Inn No 3, Gran Bretagna (99117): precipitazioni: 16.10.2018 08:00:00 - 22.10.2018 08:00:00 (BST)
Data & Tempo tt [°C] td [°C] rr [mm]
22.10.2018 08:00:00 - - -
22.10.2018 07:00:00 7,9 1,8 0,0
22.10.2018 06:00:00 7,7 2,2 0,0
22.10.2018 05:00:00 7,8 2,4 0,4
22.10.2018 04:00:00 7,8 1,1 0,0
22.10.2018 03:00:00 7,9 1,5 0,0
22.10.2018 02:00:00 7,5 0,7 0,0
22.10.2018 01:00:00 6,7 0,9 0,0
22.10.2018 00:00:00 6,7 0,9 0,0
21.10.2018 23:00:00 6,9 2,6 0,0
21.10.2018 22:00:00 6,8 0,0 0,0
21.10.2018 21:00:00 7,0 1,3 0,0
21.10.2018 20:00:00 7,3 2,3 1,0
21.10.2018 19:00:00 8,3 2,7 0,0
21.10.2018 18:00:00 7,5 3,6 0,2
21.10.2018 17:00:00 8,4 2,1 0,0
21.10.2018 16:00:00 8,8 2,1 0,0
21.10.2018 15:00:00 9,0 3,8 0,0
21.10.2018 14:00:00 8,6 5,4 1,2
21.10.2018 13:00:00 9,9 6,3 0,2
21.10.2018 12:00:00 8,9 6,8 1,2
21.10.2018 11:00:00 9,0 5,5 0,0
21.10.2018 10:00:00 8,1 5,5 0,6
21.10.2018 09:00:00 8,4 5,7 1,0
21.10.2018 08:00:00 9,2 7,9 1,0
21.10.2018 07:00:00 9,8 8,0 0,8
21.10.2018 06:00:00 10,0 8,3 0,8
21.10.2018 05:00:00 12,9 10,7 0,6
21.10.2018 04:00:00 13,1 11,7 1,4
21.10.2018 03:00:00 13,6 12,0 0,6
21.10.2018 02:00:00 13,7 12,0 0,4
21.10.2018 01:00:00 14,2 11,8 0,2
21.10.2018 00:00:00 14,2 12,6 0,4
20.10.2018 23:00:00 14,4 12,5 0,8
20.10.2018 22:00:00 13,6 12,8 0,4
20.10.2018 21:00:00 13,6 12,7 1,2
20.10.2018 20:00:00 13,8 12,8 0,6
20.10.2018 19:00:00 14,0 12,2 1,0
20.10.2018 18:00:00 14,1 12,4 0,4
20.10.2018 17:00:00 14,1 12,5 0,2
20.10.2018 16:00:00 14,4 12,2 0,4
20.10.2018 15:00:00 13,8 12,3 0,2
20.10.2018 14:00:00 12,9 12,7 1,6
20.10.2018 13:00:00 12,4 11,9 1,0
20.10.2018 12:00:00 12,4 11,6 0,6
20.10.2018 11:00:00 13,2 10,7 0,0
20.10.2018 10:00:00 13,6 9,5 0,0
20.10.2018 09:00:00 13,8 10,3 0,0
20.10.2018 08:00:00 12,6 11,3 0,2
20.10.2018 07:00:00 11,1 10,7 0,2
20.10.2018 06:00:00 9,4 8,9 0,2
20.10.2018 05:00:00 9,0 8,4 0,0
20.10.2018 04:00:00 8,2 6,4 0,0
20.10.2018 03:00:00 7,7 5,4 0,0
20.10.2018 02:00:00 5,0 3,0 0,0
20.10.2018 01:00:00 5,2 3,5 0,0
20.10.2018 00:00:00 4,1 2,8 0,0
19.10.2018 23:00:00 4,8 2,8 0,0
19.10.2018 22:00:00 5,7 3,8 0,0
19.10.2018 21:00:00 6,0 4,0 0,0
19.10.2018 20:00:00 8,5 4,5 0,0
19.10.2018 19:00:00 9,1 4,1 0,0
19.10.2018 18:00:00 8,9 4,4 0,0
19.10.2018 17:00:00 10,1 4,2 0,0
19.10.2018 16:00:00 10,0 5,4 0,0
19.10.2018 15:00:00 9,5 6,8 0,2
19.10.2018 14:00:00 11,0 5,6 0,0
19.10.2018 13:00:00 11,0 6,8 0,0
19.10.2018 12:00:00 10,2 7,0 1,0
19.10.2018 11:00:00 9,6 8,8 1,2
19.10.2018 10:00:00 8,4 7,8 1,8
19.10.2018 09:00:00 7,9 7,2 3,6
19.10.2018 08:00:00 8,0 6,5 1,2
19.10.2018 07:00:00 9,3 4,6 0,0
19.10.2018 06:00:00 9,9 3,5 0,0
19.10.2018 05:00:00 9,4 3,2 0,0
19.10.2018 04:00:00 9,1 2,7 0,0
19.10.2018 03:00:00 9,1 2,8 0,0
19.10.2018 02:00:00 9,0 3,3 0,0
19.10.2018 01:00:00 8,6 2,9 0,0
19.10.2018 00:00:00 8,8 2,9 0,0
18.10.2018 23:00:00 8,4 3,1 0,0
18.10.2018 22:00:00 8,6 2,9 0,0
18.10.2018 21:00:00 8,9 3,1 0,0
18.10.2018 20:00:00 8,9 3,5 0,0
18.10.2018 19:00:00 8,9 4,0 0,0
18.10.2018 18:00:00 8,9 4,5 0,0
18.10.2018 17:00:00 9,0 5,5 0,0
18.10.2018 16:00:00 9,6 4,5 0,0
18.10.2018 15:00:00 9,4 4,2 0,0
18.10.2018 14:00:00 9,7 4,6 0,0
18.10.2018 13:00:00 9,6 4,3 0,0
18.10.2018 12:00:00 9,2 4,2 0,0
18.10.2018 11:00:00 8,5 5,5 0,0
18.10.2018 10:00:00 7,7 5,1 0,0
18.10.2018 09:00:00 7,2 4,9 0,0
18.10.2018 08:00:00 8,2 4,0 0,0
18.10.2018 07:00:00 7,6 4,0 0,0
18.10.2018 06:00:00 8,1 3,3 0,0
18.10.2018 05:00:00 8,1 3,6 0,0
18.10.2018 04:00:00 7,9 3,9 0,0
18.10.2018 03:00:00 8,3 3,9 0,0
18.10.2018 02:00:00 7,4 4,5 0,0
18.10.2018 01:00:00 7,6 3,1 0,0
18.10.2018 00:00:00 6,9 2,4 0,0
17.10.2018 23:00:00 7,9 2,4 0,0
17.10.2018 22:00:00 7,7 3,0 0,0
17.10.2018 21:00:00 7,2 3,7 0,2
17.10.2018 20:00:00 7,8 3,5 0,0
17.10.2018 19:00:00 7,6 4,7 0,4
17.10.2018 18:00:00 7,9 4,2 0,2
17.10.2018 17:00:00 8,2 4,5 0,6
17.10.2018 16:00:00 8,9 5,5 0,4
17.10.2018 15:00:00 8,6 5,1 1,2
17.10.2018 14:00:00 10,0 4,4 0,2
17.10.2018 13:00:00 8,6 4,5 0,4
17.10.2018 12:00:00 9,3 5,4 0,2
17.10.2018 11:00:00 8,4 4,1 0,2
17.10.2018 10:00:00 8,5 4,1 0,2
17.10.2018 09:00:00 8,1 4,3 0,0
17.10.2018 08:00:00 8,3 3,6 0,2
17.10.2018 07:00:00 7,9 5,4 0,0
17.10.2018 06:00:00 8,5 5,0 0,4
17.10.2018 05:00:00 8,7 5,8 0,0
17.10.2018 04:00:00 8,9 5,5 0,2
17.10.2018 03:00:00 8,9 6,7 0,8
17.10.2018 02:00:00 9,2 6,2 0,2
17.10.2018 01:00:00 10,3 5,2 0,0
17.10.2018 00:00:00 10,5 5,9 0,0
16.10.2018 23:00:00 10,5 7,1 0,8
16.10.2018 22:00:00 11,3 8,3 2,2
16.10.2018 21:00:00 11,2 8,1 1,6
16.10.2018 20:00:00 12,0 7,4 0,8
16.10.2018 19:00:00 11,5 8,0 0,4
16.10.2018 18:00:00 11,4 8,0 0,2
16.10.2018 17:00:00 11,6 7,6 0,2
16.10.2018 16:00:00 12,2 6,4 0,0
16.10.2018 15:00:00 12,1 7,2 0,4
16.10.2018 14:00:00 11,5 8,8 0,4
16.10.2018 13:00:00 10,8 8,4 0,4
16.10.2018 12:00:00 10,3 7,5 0,2
16.10.2018 11:00:00 11,0 4,2 0,0
16.10.2018 10:00:00 10,9 3,7 0,4
16.10.2018 09:00:00 10,2 5,4 0,2
16.10.2018 08:00:00 10,7 3,9 0,0

tt = Temperatura
td = dewpoint
rr = precipitazioni

Stazioni seguenti

WeatherPro
AMSI
MeteoEarth